Find Starlink 37925

NORAD ID: 69962 Int'l Des: 2026-157 Owner: SPXS Country: US Constellation: starlink operational
LEOCIRCULAR

現在のビュー

3D地球を読み込み中...

About Starlink 37925

Starlink 37925 (NORAD 69962) is a starlink constellation satellite (v2 mini) launched Jul 9, 2026 by SPXS of US. It operates in LEO, CIRCULAR orbit with a mass of 575.00 kg.

次回通過

Passes for default location (London). Set your location on the main map for personalized predictions.

高度履歴

Loading altitude history...

軌道要素

1 69962U 26157V 26237.98211882 .00018931 00000-0 56996-3 0 9992
2 69962 53.1596 93.1158 0001284 81.9643 278.1505 15.34402907 7455
Epoch: Aug 25, 2026 • Age: 10 hours

現在のステータス

高度 465.5 km
遠地点 / 近地点 N/A
速度 7.63 km/s
衛星直下点 -9.29°S, 156.75°E
打ち上げ日 Jul 9, 2026
運用期間 0.1 years
タイプ internet

技術仕様

分類 Payload
質量 575.00 kg
乾燥質量 530.00 kg
総質量 575.00 kg
長さ 0.30 m
直径 4.10 m
スパン 29.00 m
形状 Box + pan
製造者 SPXS
バスタイプ Starlink V2MO
フェーズステータス In Orbit
所有者/国 SPXS/US

Most Searched